Ballenas Island, British Columbia

2:19 PM PDT on August 22, 2017 (GMT -0700)
Ballenas Island

Weather History for CWGB - October, 2012

Change the Weather History Date:

Friday, October 5, 2012

  Actual Average Record
Temperature  
Mean Temperature 52 °F -  
Max Temperature 57 °F - - ()
Min Temperature 48 °F - - ()
Degree Days  
Heating Degree Days 12    
Growing Degree Days 2 (Base 50)    
Moisture  
Dew Point 45 °F    
Average Humidity 76    
Maximum Humidity 82    
Minimum Humidity 68    
Precipitation  
Precipitation 0.00 in - - ()
Sea Level Pressure  
Sea Level Pressure 30.28 in    
Wind  
Wind Speed 7 mph ()    
Max Wind Speed 10 mph    
Max Gust Speed -    
T = Trace of Precipitation, MM = Missing Value Source: Averaged Metar Reports

Daily Weather History Graph

Daily Weather History Graph

Search for Another Location

Airport or City:

Trip Planner

Search our weather history database for the weather conditions in past years. The results will help you decide how hot, cold, wet, or windy it might be!

Date:

Astronomy

Oct. 05, 2012 Rise Set
Actual Time 7:23 AM PDT 6:45 PM PDT
Civil Twilight 6:51 AM PDT 7:17 PM PDT
Nautical Twilight 6:14 AM PDT 7:54 PM PDT
Astronomical Twilight 5:37 AM PDT 8:31 PM PDT
Moon 9:48 PM PDT (10/5) 1:01 PM PDT (10/5)
Length of Visible Light 12h 25m
Length of Day
11h 22m
Waning Gibbous, 73% of the Moon is Illuminated
Oct 5
Waning Gibbous
Oct 8
Last Quarter
Oct 15
New
Oct 21
First Quarter
Oct 29
Full

Hourly Weather History & Observations

Time (PDT) Temp. Dew Point Humidity Pressure Visibility Wind Dir Wind Speed Gust Speed Precip Events Conditions
12:00 AM 51.4 °F 43.9 °F 75% 30.28 in - WSW 8.1 mph - N/A   Unknown
1:00 AM 51.3 °F 44.4 °F 77% 30.30 in - WSW 10.4 mph - N/A   Unknown
2:00 AM 50.4 °F 41.0 °F 70% 30.30 in - SW 8.1 mph - N/A   Unknown
3:00 AM 50.9 °F 43.9 °F 77% 30.30 in - WSW 10.4 mph - N/A   Unknown
4:00 AM 50.5 °F 43.5 °F 77% 30.30 in - WSW 9.2 mph - N/A   Unknown
5:00 AM 50.2 °F 43.9 °F 79% 30.30 in - WSW 8.1 mph - N/A   Unknown
6:00 AM 49.5 °F 42.4 °F 77% 30.30 in - SW 9.2 mph - N/A   Unknown
7:00 AM 48.9 °F 42.6 °F 79% 30.30 in - WSW 9.2 mph - N/A   Unknown
8:00 AM 49.1 °F 42.1 °F 77% 30.31 in - WSW 9.2 mph - N/A   Unknown
9:00 AM 50.5 °F 43.2 °F 76% 30.32 in - WSW 9.2 mph - N/A   Unknown
10:00 AM 51.6 °F 44.6 °F 77% 30.33 in - West 8.1 mph - N/A   Unknown
11:00 AM 52 °F 46 °F 73% 30.33 in - West 8.1 mph - -  
11:00 AM 52.0 °F 45.9 °F 80% 30.33 in - West 8.1 mph - N/A   Unknown
12:00 PM 52.7 °F 46.9 °F 81% 30.32 in - WNW 10.4 mph - N/A   Unknown
1:00 PM 54.0 °F 46.2 °F 75% 30.31 in - WNW 8.1 mph - N/A   Unknown
2:00 PM 54.9 °F 45.9 °F 72% 30.29 in - WNW 8.1 mph - N/A   Unknown
3:00 PM 54.9 °F 45.3 °F 70% 30.27 in - WNW 9.2 mph - N/A   Unknown
4:00 PM 55.0 °F 48.2 °F 78% 30.26 in - West 6.9 mph - N/A   Unknown
5:00 PM 57 °F 50 °F 70% 30.25 in - WSW 8.1 mph - -  
5:00 PM 56.8 °F 50.0 °F 78% 30.25 in - WSW 8.1 mph - N/A   Unknown
6:00 PM 57.6 °F 48.6 °F 72% 30.24 in - WSW 4.6 mph - N/A   Unknown
7:00 PM 54.9 °F 47.1 °F 75% 30.23 in - West 4.6 mph - N/A   Unknown
8:00 PM 54.5 °F 47.1 °F 76% 30.23 in - WSW 4.6 mph - N/A   Unknown
9:00 PM 53.6 °F 45.9 °F 75% 30.23 in - WSW 4.6 mph - N/A   Unknown
10:00 PM 52.3 °F 47.1 °F 82% 30.23 in - WSW 5.8 mph - N/A   Unknown
11:00 PM 53 °F 46 °F 68% 30.24 in - West 4.6 mph - -  
11:00 PM 52.7 °F 45.5 °F 76% 30.24 in - West 4.6 mph - N/A   Unknown